Terminal Aerodrome Forecast
Issued by NWS

Home | Current Version | Previous Version | Text Only | Print | Product List | Glossary On
Versions: 1 2 3 4 5 6 7 8 9 10 11 12 13 14 15 16 17 18 19 20 21 22 23 24 25 26 27 28 29 30 31 32 33 34 35 36 37 38 39 40 41 42 43 44 45 46 47 48 49 50
000
FTUS41 KCTP 302350
TAFAOO
TAF
KAOO 302350Z 0100/0124 28004KT P6SM BKN050 BKN100
     FM010300 11002KT 3SM BR SCT050 SCT120
     FM010800 11002KT 1/2SM FG OVC005
     FM011330 11002KT 3SM BR OVC015
     FM011700 13006KT P6SM BKN060=

USA.gov is the U.S. government's official web portal to all federal, state and local government web resources and services.